Location: Chrome
(40.5765°N, 74.2163°W)
Time: 07:37:14
(UTC+00:00)

ERBS - Pass Details

Date: 06 December 2019
Orbit: 410 x 430 km, 57.0° (Epoch: 21 January)

Event Time Altitude Azimuth Distance (km) Brightness Sun altitude
Rises 22:59:43 0° 311° (NW) 2,373 6.5 -16.6°
Reaches altitude 10° 23:01:50 10° 306° (NW) 1,509 5.6 -17.0°
Maximum altitude 23:05:07 51° 230° (SW) 541 3.1 -17.6°
Drops below altitude 10° 23:08:24 10° 153° (SSE) 1,510 4.9 -18.2°
Enters shadow 23:08:24 10° 153° (SSE) 1,513 4.9 -18.2°
